Location: Newark
(50.0306°N, 2.3272°E)
Time: 08:28:42
(UTC+00:00)

A-11 Canister half - Pass Details

Date: 13 December 2019
Orbit: 1525 x 1684 km, 47.3° (Epoch: 17 January)

Event Time Altitude Azimuth Distance (km) Brightness Sun altitude
Rises 08:03:06 0° 266° (W) 4,933 11.2 2.0°
Reaches altitude 10° 08:06:16 10° 265° (W) 3,948 10.8 2.4°
Maximum altitude 08:16:26 78° 182° (S) 1,714 9.5 3.6°
Drops below altitude 10° 08:26:27 10° 98° (E) 3,895 12.1 4.7°
Sets 08:29:33 0° 98° (E) 4,864 12.6 5.1°
